Terminal Aerodrome Forecast
Issued by NWS

Home | Current Version | Previous Version | Text Only | Print | Product List | Glossary On
Versions: 1 2 3 4 5 6 7 8 9 10 11 12 13
000
FTUS45 KRIW 231300 AAA
TAFBPI
TAF AMD
KBPI 231350Z 2314/2412 VRB03KT P6SM VCFG SCT003 SCT060
      TEMPO 2314/2315 1SM BR BKN003
     FM231700 VRB04KT P6SM SCT060
     FM231900 30011KT P6SM FEW070
     FM240200 35005KT P6SM SKC=

USA.gov is the U.S. government's official web portal to all federal, state and local government web resources and services.